FW7738 Weather Reports


Display with metric or nautical units.
time (UTC)temp
F
wind
direction
speed
MPH
gust
MPH
rain 1hr
in
rain 24hr
in
rain mn
in
humidity
%
barometer
mb
20260905224026 80 313 0.0 2.0 0.00 0.00 0.00 64 1019.7
20260905223042 79 332 0.0 1.0 0.00 0.00 0.00 65 1019.8
20260905222017 79 334 0.0 1.0 0.00 0.00 0.00 65 1019.7
20260905221032 80 325 1.0 3.0 0.00 0.00 0.00 62 1019.7
20260905220028 80 290 1.0 3.0 0.00 0.00 0.00 58 1019.7
20260905215023 80 327 1.0 3.0 0.00 0.00 0.00 59 1019.8
20260905214018 80 324 1.0 3.0 0.00 0.00 0.00 60 1019.9
20260905213034 80 342 1.0 2.0 0.00 0.00 0.00 62 1019.8
20260905212029 80 347 1.0 2.0 0.00 0.00 0.00 63 1019.9
20260905211024 80 356 1.0 2.0 0.00 0.00 0.00 66 1019.9
20260905210019 79 347 1.0 2.0 0.00 0.00 0.00 67 1019.9
20260905205035 79 350 2.0 3.0 0.00 0.00 0.00 70 1020.0
20260905204030 80 355 1.0 2.0 0.00 0.00 0.00 71 1020.0
20260905203025 80 339 1.0 2.0 0.00 0.00 0.00 71 1020.0
20260905202020 80 348 2.0 3.0 0.00 0.00 0.00 70 1020.0
20260905201035 80 353 1.0 2.0 0.00 0.00 0.00 72 1019.9
20260905200031 80 352 1.0 2.0 0.00 0.00 0.00 73 1019.9
20260905195026 80 7 0.0 1.0 0.00 0.00 0.00 71 1019.8
20260905194021 81 7 1.0 1.0 0.00 0.00 0.00 72 1019.8
20260905193016 81 0.0 0.0 0.00 0.00 0.00 72 1019.6
20260905192052 81 40 0.0 1.0 0.00 0.00 0.00 73 1019.6
20260905191027 81 17 1.0 2.0 0.00 0.00 0.00 73 1019.5
20260905190022 81 357 1.0 2.0 0.00 0.00 0.00 73 1019.4
20260905185018 81 69 0.0 1.0 0.00 0.00 0.00 74 1019.3
20260905184033 81 75 0.0 3.0 0.00 0.00 0.00 74 1019.3
20260905183029 81 78 0.0 1.0 0.00 0.00 0.00 73 1019.2
20260905182023 81 67 0.0 2.0 0.00 0.00 0.00 74 1019.3
20260905181019 81 94 2.0 3.0 0.00 0.00 0.00 74 1019.1
20260905180035 82 91 3.0 4.0 0.00 0.00 0.00 73 1019.1
20260905175030 82 80 1.0 4.0 0.00 0.00 0.00 72 1019.1
20260905174025 82 88 1.0 6.0 0.00 0.00 0.00 72 1019.0
20260905173021 83 90 2.0 6.0 0.00 0.00 0.00 70 1019.1
20260905172016 83 93 5.0 7.0 0.00 0.00 0.00 69 1019.0
20260905171051 83 97 3.0 8.0 0.00 0.00 0.00 68 1018.9
20260905170026 83 94 5.0 9.0 0.00 0.00 0.00 69 1018.8
20260905165021 84 107 5.0 9.0 0.00 0.00 0.00 68 1018.9
20260905164016 84 103 4.0 9.0 0.00 0.00 0.00 66 1018.7
20260905163031 84 104 6.0 11.0 0.00 0.00 0.00 65 1018.7
20260905162026 85 102 4.0 9.0 0.00 0.00 0.00 64 1018.7
20260905161021 86 113 4.0 10.0 0.00 0.00 0.00 62 1018.7
20260905160016 86 100 5.0 11.0 0.00 0.00 0.00 60 1018.6
20260905155031 86 122 4.0 11.0 0.00 0.00 0.00 57 1018.6
20260905154046 86 124 5.0 11.0 0.00 0.00 0.00 55 1018.6
20260905153021 86 99 5.0 13.0 0.00 0.00 0.00 55 1018.6
20260905152016 87 124 6.0 11.0 0.00 0.00 0.00 55 1018.6
20260905151031 88 119 7.0 14.0 0.00 0.00 0.00 52 1018.7
20260905150046 88 126 6.0 15.0 0.00 0.00 0.00 54 1018.8
20260905145021 87 108 6.0 11.0 0.00 0.00 0.00 57 1018.8
20260905144016 87 128 8.0 14.0 0.00 0.00 0.00 57 1018.8
20260905143031 87 130 7.0 14.0 0.00 0.00 0.00 57 1018.9
20260905142026 88 109 6.0 13.0 0.00 0.00 0.00 57 1018.9
20260905141042 87 115 5.0 10.0 0.00 0.00 0.00 57 1019.0
20260905140017 87 96 8.0 14.0 0.00 0.00 0.00 58 1019.1
20260905135032 88 117 6.0 13.0 0.00 0.00 0.00 55 1019.2
20260905134027 88 121 6.0 10.0 0.00 0.00 0.00 57 1019.3
20260905133042 89 113 8.0 13.0 0.00 0.00 0.00 55 1019.4
20260905132017 89 97 7.0 11.0 0.00 0.00 0.00 52 1019.4
20260905131033 89 95 7.0 11.0 0.00 0.00 0.00 54 1019.4
20260905130028 88 109 6.0 11.0 0.00 0.00 0.00 56 1019.4
20260905125022 89 99 7.0 11.0 0.00 0.00 0.00 54 1019.6
20260905124038 88 101 5.0 11.0 0.00 0.00 0.00 56 1019.6
20260905123053 89 106 5.0 10.0 0.00 0.00 0.00 58 1019.7
20260905122049 89 112 7.0 11.0 0.00 0.00 0.00 56 1019.7
20260905121023 90 102 7.0 13.0 0.00 0.00 0.00 55 1019.6
20260905120039 90 123 9.0 13.0 0.00 0.00 0.00 49 1019.7
20260905115114 90 122 8.0 11.0 0.00 0.00 0.00 50 1019.5
20260905114030 90 102 8.0 11.0 0.00 0.00 0.00 52 1019.5
20260905113025 90 122 8.0 13.0 0.00 0.00 0.00 49 1019.5
20260905112020 90 125 7.0 11.0 0.00 0.00 0.00 54 1019.5
20260905111035 91 123 4.0 10.0 0.00 0.00 0.00 56 1019.5
20260905110030 91 118 5.0 9.0 0.00 0.00 0.00 54 1019.5
20260905105025 93 161 4.0 6.0 0.00 0.00 0.00 43 1019.4
20260905104020 92 121 3.0 8.0 0.00 0.00 0.00 45 1019.4
20260905103035 94 152 2.0 4.0 0.00 0.00 0.00 42 1019.6
20260905102030 93 185 2.0 6.0 0.00 0.00 0.00 41 1019.5
20260905101026 92 177 2.0 6.0 0.00 0.00 0.00 44 1019.5
20260905100021 92 180 2.0 6.0 0.00 0.00 0.00 44 1019.4
20260905095016 91 171 1.0 3.0 0.00 0.00 0.00 46 1019.4
20260905094031 92 159 1.0 3.0 0.00 0.00 0.00 47 1019.4
20260905093026 90 139 0.0 2.0 0.00 0.00 0.00 49 1019.3
20260905092021 88 281 2.0 3.0 0.00 0.00 0.00 53 1019.2
20260905091017 86 277 2.0 6.0 0.00 0.00 0.00 55 1019.2
20260905090032 85 247 2.0 7.0 0.00 0.00 0.00 59 1019.1
20260905085027 84 343 1.0 3.0 0.00 0.00 0.00 62 1019.0
20260905084022 83 254 5.0 9.0 0.00 0.00 0.00 64 1019.1
20260905083018 82 303 4.0 6.0 0.00 0.00 0.00 69 1018.8
20260905082033 81 268 3.0 8.0 0.00 0.00 0.00 71 1018.9
20260905081028 81 292 2.0 8.0 0.00 0.00 0.00 74 1018.9
20260905080024 79 255 3.0 6.0 0.00 0.00 0.00 76 1018.9
20260905075019 80 265 5.0 8.0 0.00 0.00 0.00 73 1019.1
20260905074045 79 322 2.0 6.0 0.00 0.00 0.00 71 1018.9
20260905073020 79 297 2.0 4.0 0.00 0.00 0.00 70 1018.9
20260905072034 79 288 1.0 3.0 0.00 0.00 0.00 70 1018.9
20260905071030 78 337 1.0 2.0 0.00 0.00 0.00 71 1018.8
20260905070025 77 2 0.0 2.0 0.00 0.00 0.00 73 1018.7
20260905065021 77 322 0.0 2.0 0.00 0.00 0.00 74 1018.4
20260905064016 76 273 1.0 2.0 0.00 0.00 0.00 77 1018.6
20260905063031 75 301 1.0 3.0 0.00 0.00 0.00 79 1018.6
20260905062026 75 310 1.0 2.0 0.00 0.00 0.00 82 1018.8
20260905061021 74 298 1.0 2.0 0.00 0.00 0.00 83 1018.6
20260905060016 74 297 1.0 3.0 0.00 0.00 0.00 84 1018.6
20260905055032 75 312 0.0 1.0 0.00 0.00 0.00 84 1018.6
20260905054027 75 307 0.0 2.0 0.00 0.00 0.00 84 1018.6
20260905053022 75 302 0.0 1.0 0.00 0.00 0.00 83 1018.4
20260905052017 75 291 1.0 2.0 0.00 0.00 0.00 83 1018.5
20260905051033 75 276 1.0 2.0 0.00 0.00 0.00 82 1018.3
20260905050028 75 276 1.0 2.0 0.00 0.00 0.00 82 1018.4
20260905045023 75 278 1.0 2.0 0.00 0.00 0.00 82 1018.3
20260905044039 75 267 2.0 3.0 0.00 0.00 0.00 82 1018.2
20260905043035 75 260 2.0 3.0 0.00 0.00 0.00 82 1018.3
20260905042030 75 254 2.0 3.0 0.00 0.00 0.00 82 1018.3
20260905041025 75 259 1.0 2.0 0.00 0.00 0.00 84 1018.1
20260905040021 76 251 2.0 3.0 0.00 0.00 0.00 84 1018.3
20260905035055 76 253 2.0 3.0 0.00 0.00 0.00 84 1018.2
20260905034051 76 241 1.0 2.0 0.00 0.00 0.00 84 1018.2
20260905033046 76 235 1.0 1.0 0.00 0.00 0.00 85 1018.0
20260905032021 76 246 1.0 2.0 0.00 0.00 0.00 86 1018.0
20260905031017 76 299 0.0 1.0 0.00 0.00 0.00 86 1018.1
20260905030032 76 0.0 0.0 0.00 0.00 0.00 86 1018.1
20260905025027 76 0.0 0.0 0.00 0.00 0.00 86 1018.1
20260905024022 76 0.0 0.0 0.00 0.00 0.00 86 1017.9
20260905023018 76 301 1.0 1.0 0.00 0.00 0.00 87 1018.0
20260905022033 75 0.0 0.0 0.00 0.00 0.00 87 1018.0
20260905021028 75 0.0 0.0 0.00 0.00 0.00 86 1017.8
20260905020023 76 0.0 0.0 0.00 0.00 0.00 86 1017.8
20260905015019 76 302 0.0 1.0 0.00 0.00 0.00 86 1017.9
20260905014034 76 308 1.0 1.0 0.00 0.00 0.00 87 1017.9
20260905013029 75 347 0.0 1.0 0.00 0.00 0.00 87 1018.0
20260905012025 76 2 0.0 1.0 0.00 0.00 0.00 86 1018.0
20260905011020 76 347 0.0 1.0 0.00 0.00 0.00 86 1018.2
20260905010035 76 0.0 0.0 0.00 0.00 0.00 86 1018.1
20260905005031 76 0.0 0.0 0.00 0.00 0.00 86 1018.1
20260905004026 76 0.0 0.0 0.00 0.00 0.00 86 1017.9
20260905003021 77 0.0 0.0 0.00 0.00 0.00 84 1017.9
20260905002016 78 0.0 0.0 0.00 0.00 0.00 83 1017.9
20260905001112 78 0.0 0.0 0.00 0.00 0.00 84 1017.9
20260905000047 78 345 0.0 1.0 0.00 0.00 0.00 84 1018.0
20260904235042 78 0.0 0.0 0.00 0.00 0.00 84 1018.1
20260904234017 78 0.0 0.0 0.00 0.00 0.00 84 1018.2
20260904233052 78 0.0 0.0 0.00 0.00 0.00 84 1018.0
20260904232047 78 0.0 0.0 0.00 0.00 0.00 84 1018.1
20260904231022 78 0.0 0.0 0.00 0.00 0.00 84 1018.0
20260904230038 78 0.0 0.0 0.00 0.00 0.00 84 1018.1
20260904225033 78 0.0 0.0 0.00 0.00 0.00 84 1018.0